| time (UTC) | temp F | wind direction | speed knots | gust knots | rain 1hr in | rain 24hr in | rain mn in | humidity % | barometer mb |
| 20260504050424 | 63 | 0 | 0.0 | 0.0 | 0.00 | 0.00 | 0.00 | 74 | 1012.9 |
| 20260504045833 | 63 | 0 | 0.0 | 0.0 | 0.00 | 0.00 | 0.00 | 74 | 1012.9 |
| 20260504045044 | 64 | 0 | 0.0 | 0.0 | 0.00 | 0.00 | 0.00 | 72 | 1013.1 |
| 20260504044119 | 64 | 0 | 0.0 | 0.9 | 0.00 | 0.00 | 0.00 | 71 | 1013.1 |
| 20260504043618 | 0 | 0 | 0.0 | 0.0 | 0.00 | 0.00 | 0.00 | ||
| 20260504020109 | 71 | 0 | 0.0 | 0.0 | 0.00 | 0.00 | 0.00 | 58 | 1012.4 |
| 20260504015254 | 71 | 0 | 0.0 | 0.9 | 0.00 | 0.00 | 0.00 | 58 | 1012.4 |
| 20260504014642 | 76 | 0 | 0.0 | 0.0 | 0.00 | 0.00 | 0.00 | 51 | 1012.2 |
| 20260504014115 | 76 | 106 | 0.0 | 0.0 | 0.00 | 0.00 | 0.00 | 51 | 1012.2 |
| 20260504005537 | 76 | 0 | 0.0 | 0.0 | 0.00 | 0.00 | 0.00 | 51 | 1012.2 |
| 20260504004516 | 76 | 0 | 0.0 | 0.9 | 0.00 | 0.00 | 0.00 | 51 | 1012.2 |
| 20260504003416 | 76 | 0 | 0.0 | 0.9 | 0.00 | 0.00 | 0.00 | 51 | 1012.2 |
| 20260504002916 | 77 | 0 | 0.0 | 0.9 | 0.00 | 0.00 | 0.00 | 50 | 1012.2 |
| 20260504002416 | 77 | 0 | 0.0 | 1.7 | 0.00 | 0.00 | 0.00 | 50 | 1012.2 |
| 20260504001914 | 77 | 0 | 0.0 | 1.7 | 0.00 | 0.00 | 0.00 | 49 | 1012.2 |
| 20260504001413 | 78 | 78 | 0.0 | 1.7 | 0.00 | 0.00 | 0.00 | 47 | 1012.1 |
| 20260504000914 | 81 | 0 | 0.0 | 0.0 | 0.00 | 0.00 | 0.00 | 43 | 1012.2 |
| 20260503235652 | 81 | 0 | 0.0 | 0.0 | 0.00 | 0.00 | 0.00 | 43 | 1012.2 |
| 20260503234117 | 81 | 0 | 0.0 | 1.7 | 0.00 | 0.00 | 0.00 | 43 | 1012.2 |
| 20260503233619 | 82 | 0 | 0.0 | 0.0 | 0.00 | 0.00 | 0.00 | 44 | 1012.3 |
| 20260503231109 | 82 | 0 | 0.0 | 2.6 | 0.00 | 0.00 | 0.00 | 44 | 1012.3 |
| 20260503230536 | 82 | 0 | 0.0 | 2.6 | 0.00 | 0.00 | 0.00 | 44 | 1012.3 |
| 20260503230037 | 82 | 83 | 0.9 | 3.5 | 0.00 | 0.00 | 0.00 | 45 | 1012.3 |
| 20260503225537 | 83 | 185 | 0.9 | 3.5 | 0.00 | 0.00 | 0.00 | 44 | 1012.3 |
| 20260503225037 | 83 | 164 | 0.0 | 1.7 | 0.00 | 0.00 | 0.00 | 43 | 1012.5 |
| 20260503224537 | 83 | 0 | 0.0 | 2.6 | 0.00 | 0.00 | 0.00 | 43 | 1012.6 |
| 20260503223941 | 84 | 224 | 0.0 | 2.6 | 0.00 | 0.00 | 0.00 | 42 | 1012.6 |